Location: *
(51.5000°N, 0.1100°W)
Time: 00:38:56
(UTC+00:00)

MSX - Pass Details

Date: 05 August 2024
Orbit: 895 x 904 km, 99.0° (Epoch: 09 September)

Event Time Altitude Azimuth Distance (km) Brightness Sun altitude
Rises 03:30:35 0° 9° (N) 3,544 7.8 -8.5°
Reaches altitude 10° 03:33:20 10° 358° (N) 2,599 6.8 -8.2°
Maximum altitude 03:38:03 27° 304° (WNW) 1,683 5.1 -7.6°
Drops below altitude 10° 03:42:45 10° 249° (WSW) 2,587 5.6 -7.1°
Enters shadow 03:43:25 - 245° (WSW) 2,803 5.8 -7.0°
